Latest Weather Observations for Cooma Airport

IDN60901

Issued at 7:12 am EDT Monday 26 January 2015 (issued every 10 minutes, with the page automatically refreshed every 10 minutes)

About weather observations | Map of Canberra area stations | Latest observations for Canberra area | Other Formats
Station Details ID: 070217 Name: COOMA AIRPORT AWS Lat: -36.29 Lon: 148.97 Height: 930.0 m
Data from the previous 72 hours. | See also: Recent months for locations in Aust Capital Territory
Date/Time
EDT
Tmp

°C
App
Tmp
°C
Dew
Point
°C
Rel
Hum
%
Delta-T

°C
Wind Press
QNH
hPa
Press
MSL
hPa
Rain
since
9 am
mm
Dir
 
Spd
km/h
Gust
km/h
Spd
kts
Gust
kts
26/07:00am 8.7 5.3 6.0 83 1.3 SSW 13 17 7 9 1015.1 1010.8 0.2
26/06:30am 8.7 4.9 5.6 81 1.5 S 15 19 8 10 1014.6 1010.2 0.2
26/06:00am 8.9 5.7 6.9 87 1.0 S 13 17 7 9 1014.2 1009.9 0.2
26/05:30am 9.0 5.9 7.3 89 0.8 S 13 17 7 9 1013.8 1009.4 0.2
26/05:00am 9.2 6.9 7.6 90 0.8 S 9 11 5 6 1013.5 1009.1 0.2
26/04:30am 9.5 6.9 7.9 90 0.8 SE 11 15 6 8 1013.3 1008.9 0.2
26/04:00am 9.7 7.6 8.3 91 0.7 SSE 9 11 5 6 1013.2 1008.8 0.2
26/03:36am 9.7 8.1 8.6 93 0.6 S 7 9 4 5 1013.3 1008.9 0.2
26/03:30am 9.6 7.5 8.4 92 0.6 SSW 9 13 5 7 1013.3 1008.9 0.2
26/03:00am 9.7 7.7 8.5 92 0.6 SSW 9 13 5 7 1013.3 1008.9 0.2
26/02:56am 9.7 7.6 8.3 91 0.7 SSW 9 13 5 7 1013.3 1008.9 0.2
26/02:30am 10.0 8.1 8.9 93 0.6 S 9 13 5 7 1013.0 1008.7 0.2
26/02:00am 10.3 8.0 8.9 91 0.7 SSW 11 15 6 8 1012.9 1008.6 0.2
26/01:30am 10.4 8.0 8.5 88 1.0 SSE 11 19 6 10 1012.8 1008.4 0.2
26/01:00am 10.5 7.7 8.6 88 1.0 S 13 19 7 10 1013.0 1008.7 0.2
26/12:30am 10.5 7.9 9.3 92 0.6 SSW 13 15 7 8 1013.0 1008.7 0.2
 
Date/Time
EDT
Tmp

°C
App
Tmp
°C
Dew
Point
°C
Rel
Hum
%
Delta-T

°C
Wind Press
QNH
hPa
Press
MSL
hPa
Rain
since
9 am
mm
Dir
 
Spd
km/h
Gust
km/h
Spd
kts
Gust
kts
25/11:30pm 10.1 7.9 9.3 95 0.4 SSW 11 15 6 8 1012.9 1008.6 0.2
25/11:00pm 9.9 7.7 9.3 96 0.3 SSW 11 15 6 8 1012.8 1008.4 0.2
25/10:30pm 9.5 7.0 8.4 93 0.6 SSW 11 13 6 7 1012.5 1008.1 0.2
25/10:21pm 9.9 7.5 8.7 92 0.6 SSW 11 15 6 8 1012.4 1008.0 0.2
25/10:00pm 10.8 8.3 9.7 93 0.6 S 13 17 7 9 1012.3 1007.9 0.2
25/09:43pm 10.9 8.5 10.1 95 0.4 S 13 19 7 10 1012.0 1007.6 0.2
25/09:30pm 10.6 8.1 9.8 95 0.4 S 13 17 7 9 1011.6 1007.2 0.2
25/09:00pm 11.1 8.3 10.0 93 0.6 SSW 15 20 8 11 1011.4 1007.0 0.2
25/08:30pm 11.9 8.4 10.1 89 1.0 SSW 19 24 10 13 1010.3 1005.9 0.2
25/08:00pm 13.7 10.1 10.5 81 1.8 SSW 20 28 11 15 1009.9 1005.4 0.2
25/07:30pm 16.2 11.7 10.1 67 3.4 SSW 24 32 13 17 1009.1 1004.7 0.2
25/07:28pm 16.6 12.0 9.8 64 3.7 SSW 24 32 13 17 1009.1 1004.7 0.2
25/07:00pm 21.6 16.8 2.8 29 9.4 WNW 17 30 9 16 1008.3 1003.9 0.2
25/06:30pm 22.4 17.0 1.4 25 10.2 WNW 19 30 10 16 1007.9 1003.4 0.2
25/05:30pm 23.1 16.1 2.0 25 10.4 WNW 28 39 15 21 1007.4 1002.9 0.2
25/05:00pm 23.7 17.9 2.5 25 10.7 WNW 22 37 12 20 1007.0 1002.5 0.2
25/04:30pm 24.3 17.9 3.0 25 10.8 W 26 35 14 19 1006.8 1002.3 0.2
25/04:00pm 24.2 17.9 3.5 26 10.6 WNW 26 37 14 20 1006.8 1002.3 0.2
25/03:30pm 24.5 18.7 4.3 27 10.5 W 24 39 13 21 1006.7 1002.2 0.2
25/03:00pm 24.1 17.7 5.0 29 10.1 W 28 44 15 24 1006.8 1002.3 0.2
25/02:47pm 24.1 17.5 4.0 27 10.4 W 28 46 15 25 1006.9 1002.4 0.2
25/02:30pm 24.0 17.8 4.4 28 10.2 WNW 26 39 14 21 1006.9 1002.4 0.2
25/02:00pm 24.6 18.2 5.4 29 10.2 W 28 46 15 25 1006.7 1002.2 0.2
25/01:30pm 24.5 19.0 7.6 34 9.3 W 26 41 14 22 1006.7 1002.2 0.2
25/01:00pm 23.9 19.0 6.7 33 9.3 WNW 22 35 12 19 1006.7 1002.2 0.2
25/12:30pm 23.4 18.0 6.2 33 9.2 WNW 24 39 13 21 1006.6 1002.1 0.2
25/12:00pm 23.0 17.0 7.1 36 8.6 WNW 28 43 15 23 1006.7 1002.2 0.2
25/11:30am 23.0 17.3 8.3 39 8.1 W 28 43 15 23 1006.7 1002.2 0.2
25/11:00am 22.6 16.2 9.4 43 7.5 WNW 33 52 18 28 1006.5 1002.0 0.2
25/10:42am 22.7 17.4 9.8 44 7.3 W 28 46 15 25 1006.3 1001.8 0.2
25/10:30am 22.4 16.3 10.5 47 6.8 W 33 44 18 24 1006.1 1001.7 0.2
25/10:17am 22.9 18.4 12.5 52 6.2 W 28 46 15 25 1006.1 1001.7 0.2
25/10:00am 22.6 18.0 12.3 52 6.1 WNW 28 43 15 23 1006.0 1001.5 0.0
25/09:30am 21.7 17.7 13.1 58 5.1 W 26 43 14 23 1006.3 1001.8 0.0
25/09:00am 21.7 20.1 13.9 61 4.7 WNW 15 24 8 13 1005.9 1001.4 -
25/08:30am 21.0 19.1 14.2 65 4.1 NW 17 30 9 16 1005.9 1001.4 -
25/08:00am 19.6 18.9 15.5 77 2.5 N 13 17 7 9 1006.0 1001.5 -
25/07:30am 18.8 17.8 15.5 81 2.0 N 15 20 8 11 1005.6 1001.1 -
25/07:00am 18.0 16.3 14.7 81 2.0 NNW 17 24 9 13 1005.3 1000.8 -
25/06:30am 17.2 16.2 15.5 90 1.0 NNW 15 20 8 11 1005.4 1000.9 -
25/06:00am 14.5 14.1 14.2 98 0.2 NNW 9 11 5 6 1005.5 1001.0 -
25/05:30am 14.3 14.8 12.9 91 0.8 SSE 2 9 1 5 1005.4 1000.9 -
25/05:00am 16.0 14.6 14.4 90 1.0 N 15 20 8 11 1005.3 1000.8 -
25/04:30am 16.9 16.2 15.4 91 0.9 N 13 19 7 10 1005.2 1000.7 -
25/04:00am 15.4 14.1 14.9 97 0.3 ENE 15 17 8 9 1005.6 1001.1 -
25/03:30am 15.4 13.7 14.6 95 0.5 NE 17 20 9 11 1005.8 1001.3 -
25/02:00am 15.1 13.8 14.9 99 0.1 NE 15 17 8 9 1006.9 1002.4 3.0
25/01:30am 15.1 14.6 14.9 99 0.1 NNE 11 15 6 8 1007.4 1002.9 3.0
25/01:00am 15.3 14.1 15.1 99 0.1 NE 15 19 8 10 1007.4 1002.9 3.0
25/12:30am 15.7 15.0 15.5 99 0.1 ENE 13 17 7 9 1007.9 1003.4 3.0
25/12:00am 15.4 15.4 15.1 98 0.2 ENE 9 13 5 7 1008.3 1003.9 3.0
 
Date/Time
EDT
Tmp

°C
App
Tmp
°C
Dew
Point
°C
Rel
Hum
%
Delta-T

°C
Wind Press
QNH
hPa
Press
MSL
hPa
Rain
since
9 am
mm
Dir
 
Spd
km/h
Gust
km/h
Spd
kts
Gust
kts
24/11:30pm 15.7 15.0 15.5 99 0.1 NE 13 17 7 9 1008.2 1003.8 3.0
24/11:00pm 15.6 15.2 15.3 98 0.2 ENE 11 15 6 8 1008.3 1003.9 3.0
24/10:30pm 15.6 14.5 15.4 99 0.1 NE 15 15 8 8 1008.6 1004.1 3.0
24/10:00pm 15.7 15.7 15.2 97 0.3 NE 9 13 5 7 1008.9 1004.4 3.0
24/09:30pm 15.9 15.9 15.3 96 0.4 NNE 9 11 5 6 1009.1 1004.7 3.0
24/09:00pm 16.3 15.9 15.3 94 0.6 N 11 15 6 8 1009.1 1004.7 3.0
24/08:30pm 16.7 15.6 15.4 92 0.8 NNE 15 20 8 11 1008.9 1004.4 3.0
24/08:00pm 17.0 15.9 15.2 89 1.1 NNE 15 20 8 11 1008.9 1004.4 3.0
24/07:30pm 17.3 15.9 15.6 90 1.0 NNE 17 20 9 11 1008.7 1004.2 3.0
24/07:00pm 17.9 17.7 16.8 93 0.7 NE 13 17 7 9 1008.9 1004.4 2.8
24/06:30pm 17.7 17.4 16.4 92 0.8 ESE 13 24 7 13 1009.0 1004.5 2.8
24/06:00pm 18.3 17.5 17.0 92 0.8 SSE 17 22 9 12 1009.1 1004.7 1.4
24/05:30pm 18.7 15.7 15.8 83 1.8 WSW 26 37 14 20 1008.4 1004.0 0.4
24/05:00pm 21.3 17.5 13.7 62 4.6 WNW 26 35 14 19 1008.1 1003.7 0.0
24/04:30pm 23.4 20.6 14.4 57 5.5 W 22 30 12 16 1007.5 1003.0 0.0
24/04:00pm 25.7 24.9 15.1 52 6.7 NW 13 20 7 11 1007.0 1002.5 0.0
24/03:30pm 25.8 24.3 14.3 49 7.1 W 15 20 8 11 1007.5 1003.0 0.0
24/03:00pm 27.4 25.7 14.8 46 7.9 WNW 17 28 9 15 1007.2 1002.8 0.0
24/02:30pm 25.9 25.2 15.3 52 6.7 WNW 13 20 7 11 1007.7 1003.2 0.0
24/02:00pm 27.9 26.6 14.9 45 8.2 WNW 15 24 8 13 1008.0 1003.5 0.0
24/01:30pm 28.2 27.5 16.5 49 7.5 NNW 15 26 8 14 1008.7 1004.2 0.0
24/01:00pm 26.1 23.9 14.9 50 7.0 NNW 20 32 11 17 1009.2 1004.8 0.0
24/12:30pm 26.2 25.8 16.2 54 6.4 NNW 13 20 7 11 1009.4 1005.0 0.0
24/12:00pm 24.3 23.5 16.0 60 5.3 NNW 15 20 8 11 1009.9 1005.4 0.0
24/11:30am 24.3 23.1 16.0 60 5.2 NNW 17 20 9 11 1010.2 1005.8 0.0
24/11:00am 24.3 23.6 15.5 58 5.5 NNW 13 24 7 13 1010.1 1005.7 0.0
24/10:30am 23.5 22.7 17.0 67 4.2 N 17 20 9 11 1010.1 1005.7 0.0
24/10:00am 22.4 22.0 18.0 76 2.9 NE 17 20 9 11 1010.3 1005.9 0.0
24/09:30am 20.9 19.7 17.1 79 2.4 NE 19 22 10 12 1010.3 1005.9 0.0
24/09:00am 21.6 21.5 18.8 84 1.8 NE 17 22 9 12 1010.3 1005.9 0.0
24/08:30am 19.6 18.8 18.4 93 0.8 NE 20 24 11 13 1010.1 1005.7 0.0
24/08:00am 18.0 18.3 17.8 99 0.1 NE 13 19 7 10 1010.2 1005.8 0.0
24/07:30am 17.3 17.3 17.1 99 0.1 NE 13 17 7 9 1010.1 1005.7 0.0
24/07:00am 17.2 17.1 17.0 99 0.1 NE 13 17 7 9 1010.0 1005.5 0.0
24/06:30am 17.1 16.2 16.9 99 0.1 NE 17 20 9 11 1009.8 1005.3 0.0
24/06:00am 17.1 16.6 16.9 99 0.1 NE 15 19 8 10 1009.8 1005.3 0.0
24/05:30am 17.0 16.1 16.8 99 0.1 NE 17 20 9 11 1009.7 1005.2 0.0
24/05:00am 17.0 16.1 16.8 99 0.1 NE 17 19 9 10 1009.4 1005.0 0.0
24/04:30am 16.5 16.1 16.3 99 0.1 NNE 13 17 7 9 1009.5 1005.1 0.0
24/04:00am 16.5 15.4 16.3 99 0.1 NNE 17 19 9 10 1009.7 1005.2 0.0
24/03:30am 16.3 15.9 16.1 99 0.1 NNE 13 19 7 10 1010.1 1005.7 0.0
24/03:00am 15.7 15.0 15.5 99 0.1 NE 13 17 7 9 1010.4 1006.0 0.0
24/02:30am 15.5 15.9 15.2 98 0.2 NNE 7 11 4 6 1010.6 1006.2 0.0
24/02:00am 15.6 17.4 15.4 99 0.1 CALM 0 2 0 1 1011.0 1006.6 0.0
24/01:30am 15.1 15.9 14.9 99 0.1 SSW 4 7 2 4 1011.3 1006.9 0.0
24/01:00am 15.3 16.0 14.5 95 0.5 S 4 9 2 5 1011.4 1007.0 0.0
24/12:30am 16.4 18.2 15.6 95 0.5 CALM 0 0 0 0 1011.8 1007.4 0.0
24/12:00am 16.1 16.6 15.1 94 0.6 WSW 6 9 3 5 1012.1 1007.7 0.0
 
Date/Time
EDT
Tmp

°C
App
Tmp
°C
Dew
Point
°C
Rel
Hum
%
Delta-T

°C
Wind Press
QNH
hPa
Press
MSL
hPa
Rain
since
9 am
mm
Dir
 
Spd
km/h
Gust
km/h
Spd
kts
Gust
kts
23/11:30pm 17.0 17.0 15.3 90 1.0 N 9 9 5 5 1011.7 1007.3 0.0
23/11:00pm 18.7 18.8 16.5 87 1.4 NNW 11 11 6 6 1012.1 1007.7 0.0
23/10:30pm 18.8 20.0 16.8 88 1.3 NNW 6 9 3 5 1012.0 1007.6 0.0
23/10:00pm 19.2 20.2 16.8 86 1.5 ENE 7 11 4 6 1011.8 1007.4 0.0
23/09:30pm 18.5 18.5 17.2 92 0.8 SW 13 15 7 8 1012.2 1007.8 0.0
23/09:00pm 19.6 18.8 17.2 86 1.5 SSW 17 22 9 12 1012.2 1007.8 0.0
23/08:30pm 20.4 21.3 16.6 79 2.4 S 7 15 4 8 1011.3 1006.9 0.0
23/08:00pm 21.9 21.6 15.5 67 4.0 SSW 11 15 6 8 1010.7 1006.3 0.0
23/07:30pm 23.9 24.2 15.9 61 5.0 SE 9 13 5 7 1009.8 1005.3 0.0
23/07:00pm 26.4 27.1 16.0 52 6.6 E 7 11 4 6 1009.0 1004.5 0.0
23/06:30pm 28.9 27.5 12.3 36 10.1 SW 11 15 6 8 1008.3 1003.9 0.0
23/06:00pm 29.2 27.9 12.6 36 10.2 W 11 17 6 9 1008.1 1003.7 0.0
23/05:30pm 28.9 26.4 11.0 33 10.7 WNW 15 22 8 12 1008.2 1003.8 0.0
23/05:00pm 28.8 27.8 14.6 42 8.9 W 13 20 7 11 1008.4 1004.0 0.0
23/04:30pm 28.8 26.8 13.9 40 9.3 W 17 26 9 14 1008.4 1004.0 0.0
23/04:00pm 28.1 27.0 13.2 39 9.2 WSW 11 17 6 9 1008.7 1004.2 0.0
23/03:30pm 26.8 25.4 14.5 46 7.7 WSW 15 22 8 12 1009.0 1004.5 0.0
23/03:00pm 26.9 26.9 14.3 46 7.8 WSW 7 17 4 9 1009.4 1005.0 0.0
23/02:30pm 27.4 26.9 14.8 46 7.9 WSW 11 20 6 11 1009.9 1005.4 0.0
23/02:00pm 27.0 25.1 14.1 45 8.0 W 17 28 9 15 1010.2 1005.8 0.0
23/01:30pm 26.9 24.8 13.6 44 8.2 WNW 17 26 9 14 1010.4 1006.0 0.0
23/01:00pm 27.4 25.3 13.7 43 8.5 W 17 22 9 12 1010.6 1006.2 0.0
23/12:30pm 27.8 25.4 14.4 43 8.4 WNW 20 30 11 16 1011.0 1006.6 0.0
23/12:00pm 27.3 25.3 15.0 47 7.7 WNW 19 28 10 15 1011.2 1006.8 0.0
23/11:30am 26.5 24.0 15.2 49 7.1 WNW 22 35 12 19 1011.6 1007.2 0.0
23/11:00am 26.0 22.7 14.1 47 7.4 WNW 24 33 13 18 1011.8 1007.4 0.0
23/10:30am 25.3 24.4 15.9 56 6.0 NW 15 24 8 13 1012.1 1007.7 0.0
23/10:00am 24.7 24.0 15.3 56 5.9 NNW 13 20 7 11 1012.2 1007.8 0.0
23/09:30am 23.1 21.8 15.7 63 4.6 NE 17 19 9 10 1012.4 1008.0 0.0
23/09:00am 21.2 20.1 16.4 74 3.0 NE 17 20 9 11 1012.7 1008.3 0.6
23/08:30am 19.3 18.2 16.3 83 1.9 NE 17 20 9 11 1012.8 1008.4 0.6
23/08:00am 17.8 17.1 16.3 91 0.9 NE 15 19 8 10 1012.8 1008.4 0.6
23/07:30am 16.4 16.1 16.4 100 0.0 NNE 13 17 7 9 1012.7 1008.3 0.6

Latest Capital City Observations: Canberra | Sydney | Melbourne | Brisbane | Adelaide | Perth | Hobart | Darwin

Other Formats:

Comma delimited format used in spreadsheet applications
http://www.bom.gov.au/fwo/IDN60903/IDN60903.94921.axf

JavaScript Object Notation format (JSON) in row-major order
http://www.bom.gov.au/fwo/IDN60903/IDN60903.94921.json